SCP
1 1 1 1 1 1 1 1 1 1 1 1 1 1 1 0 0 0 0 0 0 0 0 0 0 0 0 0 0 0 0 0
1 1 1 1 1 1 1 1 1 1 1 1 1 1 1 0 0 0 0 0 0 0 0 0 0 0 0 0 0 0 0 0
1 1 1 1 1 1 1 1 1 1 1 1 1 1 1 1 0 0 0 0 0 0 0 0 0 0 0 0 0 0 0 0
2 1 1 1 2 1 1 1 2 2 1 1 1 1 1 1 1 0 0 0 0 1 0 0 0 0 0 0 0 0 0 0
4 2 1 1 3 2 2 2 1 1 1 1 1 1 1 1 1 1 1 1 1 1 1 1 0 0 0 0 0 0 0 0
4 4 2 2 2 3 2 2 2 1 1 1 1 1 1 1 1 1 1 1 1 1 1 1 0 0 0 0 0 0 0 0
3 3 2 3 2 3 4 3 2 2 2 1 1 1 1 1 1 1 2 1 1 1 1 1 1 0 0 1 0 0 0 0
0 4 4 3 2 1 2 3 3 2 2 2 1 1 1 1 1 2 2 2 2 1 1 1 1 1 0 1 1 1 1 1
0 0 0 0 1 1 2 1 1 2 2 2 1 1 1 1 1 1 2 2 2 2 1 1 1 1 1 1 1 1 1 1
0 0 0 0 0 0 1 1 0 1 1 2 2 2 1 2 1 1 1 3 2 2 1 1 1 1 1 1 1 1 1 1
0 0 0 0 0 0 0 0 0 1 1 2 2 2 2 2 2 2 2 3 3 3 2 2 2 2 1 1 1 1 1 1
0 0 0 0 0 0 0 0 0 0 1 1 2 2 1 3 2 2 2 3 4 4 3 2 2 2 2 1 1 1 1 1
0 0 0 0 0 0 0 0 0 0 0 0 0 1 2 2 3 3 2 2 2 4 3 3 3 2 2 1 1 0 0 0
0 0 0 0 0 0 0 0 0 0 0 0 0 0 0 2 3 3 3 4 2 3 5 3 3 3 2 1 1 0 0 0
0 0 0 0 0 0 0 0 0 0 0 0 0 0 0 1 1 2 3 3 3 2 2 4 4 3 2 2 1 1 0 0
0 0 0 0 0 0 0 -0 0 0 0 0 0 0 0 0 0 1 2 2 3 3 1 3 4 3 3 1 0 0 0 0
0 0 0 0 0 0 0 0 0 -0 0 0 0 0 0 0 0 0 1 2 2 2 2 4 3 3 3 4 2 1 0 0
0 0 0 0 0 0 0 0 0 0 0 0 0 0 0 0 0 0 0 2 3 3 2 3 4 3 2 2 3 2 1 0
0 0 -0 -0 -0 -0 0 0 0 0 0 0 0 0 0 0 0 0 0 1 2 3 2 2 3 3 2 2 2 2 2 1
-0 -0 -0 -0 -0 -0 -0 0 0 0 0 0 0 0 0 0 0 0 0 0 1 2 2 2 3 3 2 3 2 2 1 1
Wind_Speed_500mb
27 28 31 45 47 45 41 39 37 36 36 36 36 35 32 29 27 26 24 22 21 18 18 18 18 16 13 12 10 10 10 14
29 32 31 43 50 47 44 43 40 39 38 38 38 36 35 33 32 31 30 28 25 23 22 22 21 19 17 15 14 14 11 12
28 38 31 38 53 52 50 47 44 42 42 41 40 41 39 38 37 35 34 31 30 29 27 26 25 23 21 19 18 16 13 13
27 25 32 38 58 57 53 51 50 48 47 45 44 42 40 40 39 39 39 37 35 35 32 30 30 27 25 23 20 19 14 19
38 29 29 34 56 59 56 54 52 50 48 47 45 44 43 44 43 43 43 42 42 41 40 38 33 31 28 24 19 14 17 24
30 34 32 40 39 55 50 52 54 54 53 52 50 49 47 46 46 44 46 45 45 45 45 41 36 33 31 29 24 19 14 30
28 34 35 40 42 46 43 48 49 59 55 54 52 54 53 48 47 43 38 43 39 37 46 47 36 30 28 31 30 26 24 29
16 25 16 23 33 46 46 44 42 40 43 47 52 55 55 53 52 52 52 43 40 38 33 42 39 34 28 29 36 37 36 36
21 19 13 15 25 34 52 40 46 49 43 47 51 48 50 51 56 54 53 47 42 41 39 36 40 46 43 41 42 45 47 46
16 9 6 7 6 19 33 51 63 52 57 61 63 55 55 56 58 62 57 52 55 50 47 44 41 48 46 44 47 47 44 40
11 13 23 24 20 27 33 42 42 45 48 55 64 55 55 65 71 68 68 70 66 62 53 53 51 54 49 45 44 48 46 39
16 21 27 29 31 32 39 44 46 46 52 52 56 59 58 62 72 82 77 74 72 72 66 61 56 55 55 51 45 42 42 43
11 16 19 25 27 29 34 38 50 56 45 51 58 62 71 68 66 73 80 83 91 73 73 64 62 57 52 51 46 42 42 44
8 11 19 24 27 27 33 41 45 48 59 51 46 66 57 75 74 76 82 85 83 98 81 74 64 66 62 55 42 48 57 56
14 19 24 28 32 36 35 36 42 51 55 66 58 59 56 63 78 79 86 81 82 85 88 87 80 76 74 53 30 34 47 64
21 25 29 33 36 40 42 44 47 48 53 59 66 70 68 56 65 73 90 85 84 81 85 84 89 81 80 77 63 32 28 20
27 32 36 40 42 43 46 49 53 59 61 62 63 69 79 74 63 66 78 90 90 82 89 87 80 88 90 91 89 67 40 35
29 37 43 46 49 50 50 51 54 59 61 69 71 71 78 86 91 73 69 82 93 92 91 91 84 83 89 87 97 90 85 51
41 48 55 60 58 56 57 57 58 61 63 67 70 78 82 82 88 96 83 75 91 93 88 85 81 85 89 86 92 94 94 81
48 52 55 57 59 61 61 60 60 63 67 70 76 79 83 86 87 92 96 77 75 95 87 84 84 85 85 91 84 91 92 78
Wind_Direction_500mb
245 242 227 217 211 201 199 199 197 198 196 195 198 200 204 207 211 211 212 219 225 230 239 241 241 243 243 235 221 217 194 242
243 242 238 225 215 208 203 203 200 204 200 201 202 204 207 209 213 214 217 221 226 232 239 240 240 244 245 243 233 231 221 217
267 252 244 228 217 215 207 206 206 207 205 204 206 208 210 211 214 216 221 225 230 235 237 243 243 245 247 249 251 245 229 203
258 269 246 233 217 218 216 211 211 210 212 208 209 212 214 217 217 218 223 228 233 237 241 244 245 247 251 252 257 262 241 212
247 256 249 250 220 219 220 218 216 217 219 216 215 216 216 220 219 220 224 229 234 237 239 241 246 250 253 254 248 247 234 228
234 240 247 254 235 223 222 224 225 224 224 224 219 220 222 222 223 224 226 229 237 242 246 248 248 248 255 257 249 257 221 220
223 239 244 248 246 219 220 226 228 233 231 233 228 226 224 227 228 229 236 230 234 246 248 246 244 248 241 240 249 249 230 232
182 226 245 254 242 225 222 230 233 236 231 237 235 233 230 223 221 225 234 235 234 241 253 245 237 239 237 228 246 249 244 241
149 122 140 225 247 239 226 227 246 239 229 249 238 233 229 225 222 222 235 232 234 240 240 242 234 238 232 235 238 243 248 252
169 183 194 202 213 215 218 226 245 240 233 226 242 244 234 227 222 227 227 233 238 239 234 230 225 228 239 236 237 243 247 248
256 259 267 279 262 234 229 235 242 242 249 241 230 242 250 239 227 226 227 225 230 238 236 231 233 236 235 240 243 245 247 248
268 267 275 284 277 265 247 237 237 235 240 253 251 247 251 249 239 230 228 226 225 225 234 231 236 242 237 239 247 253 250 245
297 301 288 288 287 279 264 256 250 241 244 244 244 251 253 250 249 242 237 235 226 224 222 228 230 227 223 236 245 243 245 249
333 310 307 303 295 281 276 274 262 256 242 248 249 241 256 256 250 248 243 243 236 226 218 225 229 224 217 221 228 233 238 241
352 331 317 307 302 300 292 280 273 273 261 251 249 246 251 247 255 255 253 248 250 247 233 224 226 224 226 213 210 222 237 243
344 329 316 309 307 307 308 306 299 288 280 272 261 253 252 252 249 252 254 251 247 245 258 238 231 231 222 224 224 224 208 217
338 319 314 312 312 309 304 300 297 296 293 284 273 264 256 250 250 252 253 256 252 246 239 245 237 237 235 226 225 225 224 224
338 327 325 323 318 312 305 300 295 291 288 288 286 275 262 256 254 256 250 250 254 249 245 247 255 238 235 227 232 222 224 214
332 329 328 326 323 316 310 304 300 297 295 289 285 281 275 266 260 258 253 246 249 251 245 243 245 243 233 235 233 231 235 232
333 333 332 328 324 318 313 307 304 300 298 295 288 284 277 272 267 260 256 247 242 249 246 242 246 244 239 237 234 235 238 233
Wind_Speed_850mb
27 28 31 45 47 45 41 39 37 36 36 36 36 35 32 29 27 26 24 22 21 18 18 18 18 16 13 12 10 10 10 14
29 32 31 43 50 47 44 43 40 39 38 38 38 36 35 33 32 31 30 28 25 23 22 22 21 19 17 15 14 14 11 12
28 38 31 38 53 52 50 47 44 42 42 41 40 41 39 38 37 35 34 31 30 29 27 26 25 23 21 19 18 16 13 13
27 25 32 38 58 57 53 51 50 48 47 45 44 42 40 40 39 39 39 37 35 35 32 30 30 27 25 23 20 19 14 19
38 29 29 34 56 59 56 54 52 50 48 47 45 44 43 44 43 43 43 42 42 41 40 38 33 31 28 24 19 14 17 24
30 34 32 40 39 55 50 52 54 54 53 52 50 49 47 46 46 44 46 45 45 45 45 41 36 33 31 29 24 19 14 30
28 34 35 40 42 46 43 48 49 59 55 54 52 54 53 48 47 43 38 43 39 37 46 47 36 30 28 31 30 26 24 29
16 25 16 23 33 46 46 44 42 40 43 47 52 55 55 53 52 52 52 43 40 38 33 42 39 34 28 29 36 37 36 36
21 19 13 15 25 34 52 40 46 49 43 47 51 48 50 51 56 54 53 47 42 41 39 36 40 46 43 41 42 45 47 46
16 9 6 7 6 19 33 51 63 52 57 61 63 55 55 56 58 62 57 52 55 50 47 44 41 48 46 44 47 47 44 40
11 13 23 24 20 27 33 42 42 45 48 55 64 55 55 65 71 68 68 70 66 62 53 53 51 54 49 45 44 48 46 39
16 21 27 29 31 32 39 44 46 46 52 52 56 59 58 62 72 82 77 74 72 72 66 61 56 55 55 51 45 42 42 43
11 16 19 25 27 29 34 38 50 56 45 51 58 62 71 68 66 73 80 83 91 73 73 64 62 57 52 51 46 42 42 44
8 11 19 24 27 27 33 41 45 48 59 51 46 66 57 75 74 76 82 85 83 98 81 74 64 66 62 55 42 48 57 56
14 19 24 28 32 36 35 36 42 51 55 66 58 59 56 63 78 79 86 81 82 85 88 87 80 76 74 53 30 34 47 64
21 25 29 33 36 40 42 44 47 48 53 59 66 70 68 56 65 73 90 85 84 81 85 84 89 81 80 77 63 32 28 20
27 32 36 40 42 43 46 49 53 59 61 62 63 69 79 74 63 66 78 90 90 82 89 87 80 88 90 91 89 67 40 35
29 37 43 46 49 50 50 51 54 59 61 69 71 71 78 86 91 73 69 82 93 92 91 91 84 83 89 87 97 90 85 51
41 48 55 60 58 56 57 57 58 61 63 67 70 78 82 82 88 96 83 75 91 93 88 85 81 85 89 86 92 94 94 81
48 52 55 57 59 61 61 60 60 63 67 70 76 79 83 86 87 92 96 77 75 95 87 84 84 85 85 91 84 91 92 78
Wind_Direction_850mb
245 242 227 217 211 201 199 199 197 198 196 195 198 200 204 207 211 211 212 219 225 230 239 241 241 243 243 235 221 217 194 242
243 242 238 225 215 208 203 203 200 204 200 201 202 204 207 209 213 214 217 221 226 232 239 240 240 244 245 243 233 231 221 217
267 252 244 228 217 215 207 206 206 207 205 204 206 208 210 211 214 216 221 225 230 235 237 243 243 245 247 249 251 245 229 203
258 269 246 233 217 218 216 211 211 210 212 208 209 212 214 217 217 218 223 228 233 237 241 244 245 247 251 252 257 262 241 212
247 256 249 250 220 219 220 218 216 217 219 216 215 216 216 220 219 220 224 229 234 237 239 241 246 250 253 254 248 247 234 228
234 240 247 254 235 223 222 224 225 224 224 224 219 220 222 222 223 224 226 229 237 242 246 248 248 248 255 257 249 257 221 220
223 239 244 248 246 219 220 226 228 233 231 233 228 226 224 227 228 229 236 230 234 246 248 246 244 248 241 240 249 249 230 232
182 226 245 254 242 225 222 230 233 236 231 237 235 233 230 223 221 225 234 235 234 241 253 245 237 239 237 228 246 249 244 241
149 122 140 225 247 239 226 227 246 239 229 249 238 233 229 225 222 222 235 232 234 240 240 242 234 238 232 235 238 243 248 252
169 183 194 202 213 215 218 226 245 240 233 226 242 244 234 227 222 227 227 233 238 239 234 230 225 228 239 236 237 243 247 248
256 259 267 279 262 234 229 235 242 242 249 241 230 242 250 239 227 226 227 225 230 238 236 231 233 236 235 240 243 245 247 248
268 267 275 284 277 265 247 237 237 235 240 253 251 247 251 249 239 230 228 226 225 225 234 231 236 242 237 239 247 253 250 245
297 301 288 288 287 279 264 256 250 241 244 244 244 251 253 250 249 242 237 235 226 224 222 228 230 227 223 236 245 243 245 249
333 310 307 303 295 281 276 274 262 256 242 248 249 241 256 256 250 248 243 243 236 226 218 225 229 224 217 221 228 233 238 241
352 331 317 307 302 300 292 280 273 273 261 251 249 246 251 247 255 255 253 248 250 247 233 224 226 224 226 213 210 222 237 243
344 329 316 309 307 307 308 306 299 288 280 272 261 253 252 252 249 252 254 251 247 245 258 238 231 231 222 224 224 224 208 217
338 319 314 312 312 309 304 300 297 296 293 284 273 264 256 250 250 252 253 256 252 246 239 245 237 237 235 226 225 225 224 224
338 327 325 323 318 312 305 300 295 291 288 288 286 275 262 256 254 256 250 250 254 249 245 247 255 238 235 227 232 222 224 214
332 329 328 326 323 316 310 304 300 297 295 289 285 281 275 266 260 258 253 246 249 251 245 243 245 243 233 235 233 231 235 232
333 333 332 328 324 318 313 307 304 300 298 295 288 284 277 272 267 260 256 247 242 249 246 242 246 244 239 237 234 235 238 233